User: anonymous   Login
Location: Unspecified
(0.0000°N, 0.0000°E)
Time: 18:48:50
(UTC+00:00)
Language:

NOAA 15 - Orbit

View from above orbital plane
View from above orbital plane
View from above satellite
View from above satellite

Ground track
Ground track

The orbit data is extracted from the following two-line orbital elements,

1 25338U 98030A   17234.17990670 +.00000036 +00000-0 +34135-4 0  9996
2 25338 098.7818 245.2210 0010926 021.4432 338.7203 14.25811943002156
Epoch (UTC): 22 August 2017 04:19:03
Eccentricity: 0.0010926
inclination: 98.7818°
perigee height: 798 km
apogee height: 813 km
right ascension of ascending node: 245.2210°
argument of perigee: 21.4432°
revolutions per day: 14.25811943
mean anomaly at epoch: 338.7203°
orbit number at epoch: 215

The dashed part of the orbit path shows where the satellite is in the earth's shadow,  

DLR